User: anonymous   Login
Location: Unspecified
(0.0000°N, 0.0000°E)
Time: 19:55:33
(UTC+00:00)
Language:

Oscar 14 - Orbit

View from above orbital plane
View from above orbital plane
View from above satellite
View from above satellite

Ground track
Ground track

The orbit data is extracted from the following two-line orbital elements,

1 20437U 90005B   22268.52331519  .00000068  00000-0  42279-4 0  9991
2 20437  98.9008 263.7504 0009549 289.9466 182.4510 14.32463639706735
Epoch (UTC): 25 September 2022 12:33:34
Eccentricity: 0.0009549
inclination: 98.9008°
perigee height: 776 km
apogee height: 790 km
right ascension of ascending node: 263.7504°
argument of perigee: 289.9466°
revolutions per day: 14.32463639
mean anomaly at epoch: 182.4510°
orbit number at epoch: 70673

The dashed part of the orbit path shows where the satellite is in the earth's shadow,  

DLR